LANDSAT 5 1 14780U 84021A 10075.19497560 .00000077 00000-0 27124-4 0 6068 2 14780 98.2075 144.4791 0002678 10.9729 349.1538 14.57112850384994 SPOT 2 1 20436U 90005A 10074.20511038 .00000171 00000-0 39169-4 0 746 2 20436 98.6354 159.4120 0155249 186.0177 173.9181 14.61953224 45141 ERS-2 1 23560U 95021A 10075.16126345 .00000292 00000-0 12431-3 0 26 2 23560 98.5291 151.3436 0001196 83.0744 277.0779 14.32261037779144 RADARSAT-1 1 23710U 95059A 10075.19856604 .00000187 00000-0 89390-4 0 1309 2 23710 98.5802 83.1303 0001114 90.9115 334.3491 14.29982414749682 TOMS EP 1 23940U 96037A 10074.69990334 .00000157 00000-0 49075-4 0 3017 2 23940 97.9941 299.6961 0028701 234.3284 125.5237 14.52294890728832 MIDORI (ADEOS) 1 24277U 96046A 10075.12206804 .00000056 00000-0 38862-4 0 3045 2 24277 98.4048 34.1771 0001402 145.5134 214.6145 14.28611240707758 ORBVIEW 2 (SEASTAR) 1 24883U 97037A 10074.87663196 .00000043 00000-0 18932-4 0 804 2 24883 98.3713 206.0011 0002525 82.8045 277.3450 14.60029104672087 IRS-1D 1 24971U 97057A 10075.11948168 -.00000083 00000-0 -15013-4 0 2060 2 24971 98.2083 102.5887 0053683 202.2599 157.6272 14.32966882651775 TRMM 1 25063U 97074A 10074.76805937 .00008538 00000-0 12033-3 0 3068 2 25063 34.9662 342.1913 0000930 249.3398 110.7228 15.55785361702423 SPOT 4 1 25260U 98017A 10075.18332081 .00000053 00000-0 45000-4 0 250 2 25260 98.6630 147.9381 0001320 127.1747 232.9677 14.20047273620933 FASAT B 1 25395U 98043B 10074.48703329 .00000045 00000-0 37020-4 0 6910 2 25395 98.3112 96.3632 0003560 120.2519 239.9019 14.24378946607063 TECHSAT 1B (GO-32) 1 25397U 98043D 10074.45395999 .00000004 00000-0 19901-4 0 1366 2 25397 98.3158 87.0588 0001812 143.1212 217.0119 14.23173453606718 LANDSAT 7 1 25682U 99020A 10075.09279522 .00000030 00000-0 16795-4 0 7041 2 25682 98.2197 144.6154 0001209 103.7643 256.3686 14.57105893580677 KITSAT 3 1 25756U 99029A 10074.08734479 .00000045 00000-0 22899-4 0 1500 2 25756 98.6509 280.5063 0014928 70.5578 289.7239 14.52566949572481 DLR-TUBSAT 1 25757U 99029B 10075.07333071 .00000047 00000-0 24173-4 0 6878 2 25757 98.6821 272.2051 0015435 95.2718 265.0224 14.50857321572136 IRS-P4 (OCEANSAT 1) 1 25758U 99029C 10074.37336903 -.00000005 00000-0 98328-5 0 3931 2 25758 98.2692 169.9302 0001276 105.6368 254.5056 14.50867796572183 QUIKSCAT 1 25789U 99034A 10074.13690551 .00000004 00000-0 19494-4 0 6653 2 25789 98.6322 264.6779 0000615 114.3178 245.8080 14.26801009559097 IKONOS 2 1 25919U 99051A 10075.14246935 .00000093 00000-0 26400-4 0 9760 2 25919 98.1062 151.3938 0000950 68.8062 291.3256 14.64448106559867 CBERS 1 (ZY 1A) 1 25940U 99057A 10074.61972791 .00000019 00000-0 21277-4 0 5319 2 25940 98.1682 70.0388 0005141 2.6483 357.4705 14.34479519545727 TERRA 1 25994U 99068A 10075.17913244 .00000123 00000-0 37383-4 0 5995 2 25994 98.2104 151.1512 0000587 89.8583 270.2700 14.57111867544767 ARIRANG 1 (KOMPSAT-1) 1 26032U 99070A 10075.14893364 .00000098 00000-0 26362-4 0 7289 2 26032 97.8860 310.5026 0006405 91.7591 268.4343 14.65677959547327 EO-1 1 26619U 00075A 10075.13767171 .00000705 00000-0 14965-3 0 9666 2 26619 98.1430 143.6174 0010600 169.5689 190.5793 14.62086954496006 SAC C 1 26620U 00075B 10074.80837303 -.00000063 00000-0 -47120-5 0 9509 2 26620 97.8859 98.3897 0001021 98.7069 261.4312 14.56602649495214 EROS A1 1 26631U 00079A 10075.19103883 .00002846 00000-0 14022-3 0 7316 2 26631 97.4538 142.2354 0010270 115.6905 329.7849 15.18726980515790 QUICKBIRD 2 1 26953U 01047A 10075.14993862 .00004760 00000-0 12132-3 0 363 2 26953 97.1161 149.9788 0001451 62.6836 22.4760 15.40001368472462 TES 1 26957U 01049A 10075.15979219 .00000885 00000-0 73355-4 0 202 2 26957 97.6346 152.4359 0024952 341.5785 18.4523 15.01153403460006 JASON 1 1 26997U 01055A 10073.90495858 -.00000038 00000-0 10000-3 0 1586 2 26997 66.0399 228.1895 0007200 277.0147 83.0038 12.80931969386715 METEOR-3M 1 27001U 01056A 10074.66767339 -.00000036 00000-0 68101-5 0 6012 2 27001 99.2283 283.8384 0014315 52.2305 308.0135 13.68714823412653 BADR-B 1 27003U 01056C 10074.75866145 -.00000036 00000-0 64779-5 0 4698 2 27003 99.2182 290.5096 0020904 52.6704 307.6348 13.70102999413140 MAROC-TUBSAT 1 27004U 01056D 10074.75237977 .00000023 00000-0 74373-4 0 4666 2 27004 99.2130 289.7518 0020545 53.4937 306.8096 13.70031500413118 ENVISAT 1 27386U 02009A 10075.13979395 .00000010 00000-0 19775-4 0 8719 2 27386 98.5472 143.5906 0000975 99.4998 260.6312 14.32248427420429 SPOT 5 1 27421U 02021A 10075.16102322 .00000169 00000-0 10000-3 0 9418 2 27421 98.7402 150.3746 0000831 81.0790 5.5018 14.20026595407768 AQUA 1 27424U 02022A 10074.92536508 .00000095 00000-0 31175-4 0 5840 2 27424 98.2001 17.8151 0001640 61.3352 298.8021 14.57124050418333 HAIYANG-1A 1 27430U 02024A 10074.95349145 .00000001 00000-0 17007-4 0 2977 2 27430 98.4402 138.4531 0008899 4.2070 355.9183 14.29744288408901 ALSAT 1 1 27559U 02054A 10075.11313480 .00000169 00000-0 36654-4 0 2732 2 27559 97.9040 306.8352 0022786 206.8278 153.1745 14.69374216389654 MIDORI II (ADEOS-II) 1 27597U 02056A 10074.22548891 .00000018 00000-0 25076-4 0 943 2 27597 98.4366 134.4831 0000627 135.6369 224.4863 14.26197395377429 ICESAT 1 27642U 03002A 10075.22118397 .00000431 00000-0 45046-4 0 5090 2 27642 93.9939 70.8597 0003222 43.6647 316.4834 14.90880225390190 ORBVIEW 3 1 27838U 03030A 10074.58044970 .00004763 00000-0 11406-3 0 3958 2 27838 97.0195 128.6290 0002176 109.4057 250.7316 15.41891568377202 IRS-P6 (RESOURCESAT-1) 1 28051U 03046A 10075.15284146 .00000176 00000-0 10000-3 0 5201 2 28051 98.6829 152.2069 0003168 89.5507 356.9837 14.21647888332757 CBERS 2 (ZY 1B) 1 28057U 03049A 10074.74762197 .00000018 00000-0 20825-4 0 747 2 28057 98.2435 120.3286 0000399 239.3000 120.8142 14.34927794335341 TANSUO 1 1 28220U 04012A 10075.13413765 .00000540 00000-0 63044-4 0 4742 2 28220 97.4663 102.5945 0012257 16.2870 343.8713 14.88793930320879 FORMOSAT-2 (ROCSAT 2) 1 28254U 04018A 10075.20257132 .00000104 00000-0 10000-3 0 5826 2 28254 99.0932 138.0932 0001411 175.4180 259.8206 14.00728145297602 AURA 1 28376U 04026A 10074.72467577 .00000044 00000-0 19903-4 0 7481 2 28376 98.2005 19.6909 0001376 70.9236 289.2092 14.57119794301352 PARASOL 1 28498U 04049G 10074.29214401 .00000150 00000-0 42473-4 0 6552 2 28498 98.3045 21.0560 0001074 97.6308 262.5022 14.58342789278570 IRS-P5 (CARTOSAT-1) 1 28649U 05017A 10075.18741269 .00000210 00000-0 32635-4 0 4871 2 28649 97.9246 149.1188 0000682 78.2640 281.8663 14.82630786263160 TOPSAT 1 28891U 05043B 10075.15308673 .00000021 00000-0 13888-4 0 9047 2 28891 98.0193 321.5530 0016400 213.4730 146.5438 14.59799323233540 SINAH 1 1 28893U 05043D 10074.72859048 .00000006 00000-0 10625-4 0 7135 2 28893 98.0223 322.3160 0015036 213.9814 146.0424 14.60102462233539 ALOS (DAICHI) 1 28931U 06002A 10075.16865218 -.00000480 00000-0 -91501-4 0 6419 2 28931 98.1601 151.4375 0001207 95.1643 264.9747 14.59566357220570 EROS B 1 29079U 06014A 10075.22199051 .00003358 00000-0 16564-3 0 3853 2 29079 97.4188 195.7358 0010198 177.5252 242.7190 15.18558368215791 RSS-1 (YAOGAN 1) 1 29092U 06015A 10075.22325107 .00000427 00000-0 62776-4 0 3550 2 29092 97.8611 68.4344 0001567 92.2022 267.9372 14.80276349210015 RESURS-DK 1 1 29228U 06021A 10075.17422528 .00002992 00000-0 66793-4 0 2198 2 29228 69.9340 6.3244 0155774 95.5558 266.3416 15.33117778210005 ARIRANG 2 (KOMPSAT-2) 1 29268U 06031A 10075.14104580 .00000164 00000-0 41958-4 0 491 2 29268 98.0111 324.8208 0017992 17.0635 343.1173 14.61736158193812 LAPAN-TUBSAT 1 29709U 07001A 10075.14225260 .00000050 00000-0 13177-4 0 5297 2 29709 97.7726 127.9306 0014502 115.9087 244.3629 14.80288070171713 CARTOSAT-2 (IRS-P7) 1 29710U 07001B 10075.08408260 .00000397 00000-0 61318-4 0 5244 2 29710 97.9731 136.2271 0002121 95.0174 265.1284 14.78627193171567 HAIYANG-1B 1 31113U 07010A 10075.15954364 .00000081 00000-0 48703-4 0 2614 2 31113 98.5121 148.1580 0013380 350.3241 9.7705 14.29458580152795 COSMO-SKYMED 1 1 31598U 07023A 10075.12652282 -.00000224 00000-0 -21635-4 0 957 2 31598 97.8646 264.2238 0001318 92.5532 267.5818 14.82167332149901 TERRASAR-X 1 31698U 07026A 10075.16757186 -.00000666 00000-0 -28521-4 0 674 2 31698 97.4458 83.6839 0001544 87.1691 343.3929 15.19146962152565 WORLDVIEW-1 (WV-1) 1 32060U 07041A 10075.14901699 .00001571 00000-0 67011-4 0 7806 2 32060 97.4026 154.9500 0000945 56.5735 328.7103 15.24405096138523 CBERS 2B 1 32062U 07042A 10075.19116819 .00000076 00000-0 38943-4 0 7706 2 32062 98.4538 152.6977 0026057 255.9690 103.8613 14.38461997130519 COSMO-SKYMED 2 1 32376U 07059A 10075.09277613 .00000332 00000-0 48194-4 0 5084 2 32376 97.8644 264.1922 0001377 88.0728 272.0638 14.82169247122645 RADARSAT-2 1 32382U 07061A 10075.17905655 .00000214 00000-0 10000-3 0 4843 2 32382 98.5799 83.9589 0001097 94.1115 38.6320 14.29982051117560 CARTOSAT-2A 1 32783U 08021A 10075.10913848 .00000056 00000-0 14631-4 0 903 2 32783 97.9097 138.6802 0014328 251.7840 108.1813 14.78700042101512 IMS-1 1 32786U 08021D 10074.60975675 .00000440 00000-0 64982-4 0 6486 2 32786 97.9103 139.4844 0011706 224.5356 135.4942 14.80064292101536 JASON 2 (OSTM) 1 33105U 08032A 10074.80006981 -.00000050 00000-0 46041-4 0 5844 2 33105 66.0394 226.7337 0007420 271.6702 88.3455 12.80930951 81134 RAPIDEYE 2 1 33312U 08040A 10075.19262394 .00000059 00000-0 14737-4 0 7452 2 33312 97.9549 163.2569 0011282 316.7833 43.2502 14.79896427 83435 RAPIDEYE 5 1 33313U 08040B 10075.15082202 .00000399 00000-0 59745-4 0 7351 2 33313 97.9541 162.5664 0018407 176.4776 183.6577 14.79895937 83378 RAPIDEYE 1 1 33314U 08040C 10075.13826477 .00000085 00000-0 18289-4 0 7800 2 33314 97.9539 163.2957 0024192 325.6346 34.3311 14.79894582 83416 RAPIDEYE 3 1 33315U 08040D 10075.17763144 -.00004387 00000-0 -57460-3 0 7170 2 33315 97.9528 162.7088 0011140 256.1328 103.8809 14.79881285 83387 RAPIDEYE 4 1 33316U 08040E 10075.16377491 .00000121 00000-0 22959-4 0 7071 2 33316 97.9523 162.5654 0012099 194.0642 166.0243 14.79894908 83371 HJ-1A 1 33320U 08041A 10075.19057580 .00000365 00000-0 61326-4 0 6849 2 33320 97.9518 151.6975 0023590 288.0041 71.8621 14.75236260 81996 HJ-1B 1 33321U 08041B 10075.08705174 .00000034 00000-0 12683-4 0 7236 2 33321 97.9534 151.6362 0042021 300.7785 58.9300 14.75244820 81960 GEOEYE 1 1 33331U 08042A 10075.17491025 -.00001948 00000-0 -35938-3 0 6957 2 33331 98.0788 150.3411 0009642 306.6013 53.4471 14.64417624 81282 THEOS 1 33396U 08049A 10075.20414873 .00000169 00000-0 10000-3 0 4802 2 33396 98.7076 143.8223 0000901 96.7057 326.8396 14.20038630 75387 COSMO-SKYMED 3 1 33412U 08054A 10075.08010393 .00000008 00000-0 75762-5 0 5331 2 33412 97.8642 264.1788 0001311 92.5151 267.6216 14.82168485 75106 YAOGAN 4 1 33446U 08061A 10075.14984044 -.00000421 00000-0 -54409-4 0 4396 2 33446 97.8775 154.6568 0012925 228.2698 131.7413 14.75503729 69307 YAOGAN 5 1 33456U 08064A 10075.23918689 .00002281 00000-0 93704-4 0 4285 2 33456 97.3440 150.8030 0006081 122.8764 270.3995 15.25187556 69513 YAOGAN 6 1 34839U 09021A 10075.24011881 .00001662 00000-0 84528-4 0 343 2 34839 97.6001 151.0189 0001415 167.7878 225.4125 15.18262767 49786 RAZAKSAT 1 35578U 09037A 10075.17656314 .00000702 00000-0 28246-4 0 7479 2 35578 8.9868 160.9686 0016517 171.4241 188.6245 14.64960736 35980 DEIMOS-1 1 35681U 09041A 10075.11949418 .00000208 00000-0 43580-4 0 7089 2 35681 98.1093 333.7101 0001442 111.5604 248.5762 14.69345928 33711 OCEANSAT 2 1 35931U 09051A 10074.82860493 .00006029 00000-0 15388-2 0 3288 2 35931 98.3286 172.9007 0004312 48.0472 312.0723 14.50862626 25162 WORLDVIEW-2 1 35946U 09055A 10075.13344577 -.00001200 00000-0 -38805-3 0 4855 2 35946 98.5528 152.2796 0002450 82.6888 277.4594 14.37255916 22756 SMOS 1 36036U 09059A 10074.15041476 -.00000043 00000-0 00000+0 0 1136 2 36036 98.4419 262.6494 0000947 86.8706 273.2575 14.39756457 19151 YAOGAN 7 1 36110U 09069A 10075.13097627 -.00000051 00000-0 00000+0 0 2958 2 36110 97.8476 217.2602 0026784 354.7713 5.3199 14.76200772 14278